Погода в Ставросе

Греция     35°35′13″N   24°05′30″E
темп.,
°C
ветер,
м/с
пор.,
м/с
влажн.,
%
обл.,
%
осадки,
мм/ч
давл.,
гПа
погр.,
м
8 мая, сб
сб800:00+22зюз234299 0.0 101122
03:00+21ююз124999 0.0 100924
06:00+20зюз225730 0.0 100835
09:00+21зсз346421 0.0 1010250
12:00+24сз444617 0.0 1010488
15:00+22сз455726 0.0 1010443
18:00+22зсз34490 0.0 1011378
21:00+19зюз22560 0.0 101220
9 мая, вс
вс900:00+18ю11610 0.0 101414
03:00+18вюв23620 0.0 101541
06:00+16всв35850 0.0 1017172
09:00+18всв477615 0.0 1020721
12:00+19св57650 0.0 1021814
15:00+19св68580 0.0 1021859
18:00+17св67580 0.0 1021757
21:00+14всв46740 0.0 1021476
10 мая, пн
пн1000:00+13в46810 0.0 1022441
03:00+12юв23750 0.0 1021161
06:00+12всв24790 0.0 1020401
09:00+15св45610 0.0 1020701
12:00+18св55500 0.0 1020810
15:00+18св55480 0.0 1019635
18:00+17в56495 0.0 1018615
21:00+13вюв577097 0.0 1019296
11 мая, вт
вт1100:00+13юв46576 0.0 1018166
03:00+13вюв234096 0.0 1017101
06:00+12всв13680 0.0 1017325
09:00+16ссв34650 0.0 1017580
12:00+18ссв54550 0.0 1017652
15:00+18с43560 0.0 1016574
18:00+18ссв21510 0.0 1014329
21:00+15юв22490 0.0 101472
12 мая, ср
ср1200:00+15ююв22295 0.0 101425
03:00+15ююв22280 0.0 101324
06:00+15юв22305 0.0 101225
09:00+20в33325 0.0 1012216
12:00+22ссв33378 0.0 1012452
15:00+21ссз334487 0.0 1012538
18:00+21ссз22466 0.0 1011316
21:00+18зюз22570 0.0 101133